Content
SEND FEEDBACK

Daily
Averages
Monthly
Summary
France

LILLE, FRANCE


Home > Europe > France
Elevation: 171 feet     Latitude: 50 34N     Longitude: 003 06E

WEATHER
 
SELECT A DAY
Number of Records: 269,043;   Date Range: 7/1/96 - 7/30/14
 
SHARE

PRINT THIS DATA

[ ← Previous Day ]
WEATHER ALMANAC - JUNE 14, 2013
[ Next Day → ]
[ °C ]   °F
Weather ElementAverageHighLow
Temperature58.5 °F68 °F (7:30 pm)48.2 °F (5:30 am)
Dewpoint45.3 °F50 °F (7:00 am)39.2 °F (7:00 pm)
Humidity64 %100 % (7:00 am)27 % (8:00 pm)
Barometer30.08 in30.15 in (8:00 am)29.98 in (9:00 pm)
Wind Speed7.8 mph11.5 mph (1:00 am)
Weather ElementAverage
Visibility8.2 mi
Wind DirectionSSW (210.4 °)

Weather ElementTotal
Precipitation---
Heating Degree Days6.9 (Base 65)
Growing Degree Days8.1 (Base 50)
Averaged from 48 records on June 14, 2013
WEATHER CONDITIONS BREAKOUT
WIND DIRECTION BREAKOUT
WEATHER BY HOUR - JUNE 14, 2013
[ °C ]   °F
Local TimeTemperatureDewpointHumidityBarometerVisibilityWind DirectionWind SpeedGust SpeedPrecipitationEventsConditions
1:00 AM51.8 °F46.4 °F82 %30.09 inWSW (250°)11.5 mphClear
2:00 AM52.0 °F47.0 °F79 %30.13 in19.0 miWSW (250°)9.2 mph
2:00 AM51.8 °F48.2 °F88 %30.12 inWSW (250°)9.2 mphClear
2:30 AM51.8 °F48.2 °F88 %30.12 in6.2 miWest (270°)5.8 mphPartly Cloudy
3:00 AM51.8 °F48.2 °F88 %30.12 in6.2 miWest (260°)8.1 mphScattered Clouds
3:30 AM51.8 °F46.4 °F82 %30.12 in6.2 miWSW (240°)9.2 mph
4:00 AM50.0 °F48.2 °F94 %30.12 in6.2 miWSW (250°)8.1 mph
4:30 AM50.0 °F46.4 °F87 %30.12 in6.2 miWest (260°)5.8 mph
5:00 AM50.0 °F46.4 °F87 %30.12 inWest (260°)4.6 mphClear
5:30 AM48.2 °F46.4 °F93 %30.12 inSW (220°)5.8 mphClear
6:00 AM48.2 °F46.4 °F93 %30.12 inSSW (210°)5.8 mphClear
6:30 AM48.2 °F46.4 °F93 %30.12 inSSW (210°)3.5 mphClear
7:00 AM50.0 °F50.0 °F100 %30.12 in6.2 miSW (230°)5.8 mphMostly Cloudy
7:30 AM51.8 °F50.0 °F94 %30.12 in6.2 miSW (220°)5.8 mphMostly Cloudy
8:00 AM54.0 °F49.0 °F76 %30.15 in9.0 miSSW (200°)6.9 mphPartly Cloudy
8:00 AM53.6 °F50.0 °F88 %30.12 in6.2 miSSW (200°)6.9 mphMostly Cloudy
8:30 AM55.4 °F48.2 °F77 %30.12 in6.2 miSW (220°)5.8 mphMostly Cloudy
9:00 AM55.4 °F46.4 °F72 %30.15 in6.2 miWSW (240°)9.2 mphMostly Cloudy
9:30 AM57.2 °F46.4 °F67 %30.12 in6.2 miWSW (240°)8.1 mphScattered Clouds
10:00 AM57.2 °F44.6 °F63 %30.12 in6.2 miSW (220°)6.9 mphMostly Cloudy
10:30 AM59.0 °F46.4 °F63 %30.12 in6.2 miSW (230°)10.4 mphMostly Cloudy
11:00 AM59.0 °F46.4 °F63 %30.12 in6.2 miWSW (240°)8.1 mphMostly Cloudy
11:30 AM59.0 °F42.8 °F55 %30.12 in6.2 miSSW (200°)9.2 mphMostly Cloudy
12:00 PM59.0 °F44.6 °F59 %30.12 in6.2 miSSW (210°)10.4 mphMostly Cloudy
12:30 PM59.0 °F44.6 °F59 %30.12 in6.2 miSW (220°)6.9 mphMostly Cloudy
1:00 PM60.8 °F44.6 °F55 %30.12 in6.2 miSW (220°)9.2 mphMostly Cloudy
1:30 PM60.8 °F44.6 °F55 %30.12 in6.2 miSSW (200°)6.9 mphMostly Cloudy
2:00 PM62.0 °F45.0 °F43 %30.11 in31.0 miSSW (200°)9.2 mphScattered Clouds
2:00 PM62.6 °F44.6 °F52 %30.09 in6.2 miSSW (200°)9.2 mphMostly Cloudy
2:30 PM62.6 °F42.8 °F48 %30.09 in6.2 miSSW (210°)6.9 mphMostly Cloudy
3:00 PM62.6 °F41.0 °F45 %30.06 in6.2 miSW (220°)5.8 mphMostly Cloudy
3:30 PM64.4 °F41.0 °F42 %30.06 in6.2 miSW (220°)9.2 mphMostly Cloudy
4:00 PM64.4 °F44.6 °F49 %30.06 in6.2 miSouth (180°)6.9 mphMostly Cloudy
4:30 PM66.2 °F42.8 °F43 %30.04 in6.2 miSouth (190°)8.1 mphMostly Cloudy
5:00 PM66.2 °F42.8 °F43 %30.04 in6.2 miSSE (150°)6.9 mphScattered Clouds
5:30 PM66.2 °F42.8 °F43 %30.04 in6.2 miSSW (210°)6.9 mphScattered Clouds
6:00 PM66.2 °F44.6 °F46 %30.04 in6.2 miSouth (180°)9.2 mphScattered Clouds
6:30 PM66.2 °F42.8 °F43 %30.01 inSouth (180°)9.2 mphClear
7:00 PM66.2 °F39.2 °F37 %30.01 inSouth (180°)9.2 mphClear
7:30 PM68.0 °F41.0 °F37 %30.01 inSouth (190°)8.1 mphClear
8:00 PM67.0 °F41.0 °F27 %30.01 in31.0 miSouth (190°)10.4 mphScattered Clouds
8:00 PM68.0 °F41.0 °F37 %30.01 inSouth (180°)10.4 mphClear
8:30 PM66.2 °F42.8 °F43 %30.01 inSouth (190°)6.9 mphClear
9:00 PM64.4 °F44.6 °F49 %29.98 inSSE (160°)8.1 mphClear
9:30 PM62.6 °F46.4 °F55 %29.98 inSouth (170°)8.1 mphClear
10:00 PM60.8 °F46.4 °F59 %29.98 inSSE (160°)6.9 mphClear
10:30 PM59.0 °F46.4 °F63 %29.98 inSSE (160°)6.9 mphClear
11:00 PM57.2 °F46.4 °F67 %29.98 inSSE (160°)6.9 mphClear
Hourly data recorded from LFQQ, located miles away from Lille, France







STORIES FROM OUR PARTNERS